Total_Precipitation_Accumulation
0.74 0.73 0.78 0.80 0.83 0.89 0.97 0.98 1.03 1.09 1.16 1.18 1.14 1.10 1.01 0.95 0.95 0.97 0.98 1.08 1.09 1.09 1.17 1.20 1.26 1.37 1.52 1.57 1.61 1.68 1.88 2.04 1.93 1.83 1.70 1.56 1.42 1.26 1.11 1.09 1.09 1.03 0.86
0.72 0.72 0.76 0.79 0.79 0.79 0.83 0.81 0.83 0.88 0.91 0.93 0.93 0.99 1.02 1.01 0.98 0.97 0.93 0.92 0.97 1.00 1.07 1.17 1.23 1.35 1.47 1.45 1.54 1.62 1.81 2.03 2.10 2.23 2.27 2.03 1.72 1.49 1.37 1.22 0.98 0.88 0.88
0.66 0.71 0.78 0.78 0.76 0.80 0.83 0.82 0.81 0.80 0.82 0.82 0.83 0.86 0.89 0.97 1.08 1.10 1.07 1.08 1.10 1.02 1.08 1.17 1.17 1.21 1.30 1.32 1.44 1.57 1.72 1.86 2.04 2.15 2.28 2.10 1.91 1.62 1.61 1.42 1.17 1.08 0.87
0.58 0.72 0.86 0.91 0.92 0.93 0.88 0.89 0.87 0.83 0.84 0.83 0.79 0.79 0.82 0.83 0.90 1.04 1.10 1.10 1.07 1.03 1.03 1.02 0.99 1.01 1.10 1.19 1.25 1.41 1.56 1.70 1.82 1.87 2.01 2.08 2.10 2.06 1.99 1.76 1.58 1.38 1.12
0.59 0.80 0.91 0.90 0.85 0.84 0.83 0.90 0.87 0.80 0.77 0.81 0.74 0.72 0.77 0.81 0.79 0.81 0.93 0.96 0.96 0.95 0.96 0.89 0.78 0.78 0.82 0.86 0.93 1.17 1.34 1.48 1.63 1.74 1.87 2.05 2.16 2.29 2.14 2.01 1.88 1.76 1.50
0.55 0.67 0.71 0.76 0.78 0.75 0.70 0.69 0.71 0.74 0.73 0.74 0.68 0.66 0.67 0.61 0.62 0.59 0.61 0.70 0.76 0.78 0.83 0.84 0.76 0.65 0.61 0.63 0.65 0.77 0.96 1.12 1.36 1.62 1.81 2.02 2.11 2.08 2.19 2.19 2.12 1.98 1.85
0.48 0.53 0.61 0.72 0.74 0.68 0.59 0.63 0.71 0.72 0.71 0.70 0.64 0.61 0.60 0.59 0.47 0.41 0.41 0.51 0.61 0.64 0.69 0.75 0.66 0.59 0.57 0.54 0.59 0.65 0.71 0.78 0.92 1.23 1.52 1.64 1.67 1.67 1.91 2.10 2.11 2.03 2.00
0.49 0.57 0.62 0.73 0.74 0.69 0.67 0.67 0.69 0.69 0.69 0.70 0.65 0.61 0.65 0.60 0.46 0.38 0.34 0.35 0.48 0.58 0.62 0.66 0.69 0.69 0.62 0.60 0.60 0.65 0.63 0.63 0.66 0.73 0.89 1.04 1.22 1.37 1.59 1.89 2.12 2.11 2.12
0.50 0.62 0.72 0.80 0.80 0.75 0.73 0.71 0.70 0.68 0.64 0.64 0.66 0.67 0.68 0.66 0.47 0.36 0.34 0.41 0.53 0.57 0.60 0.61 0.64 0.69 0.63 0.52 0.54 0.60 0.63 0.65 0.57 0.59 0.63 0.75 0.90 1.06 1.24 1.49 1.76 2.03 2.29
0.60 0.69 0.76 0.82 0.85 0.82 0.80 0.78 0.75 0.74 0.67 0.62 0.64 0.68 0.68 0.72 0.52 0.32 0.29 0.42 0.59 0.65 0.74 0.72 0.58 0.54 0.53 0.41 0.44 0.55 0.56 0.57 0.53 0.56 0.58 0.61 0.67 0.81 0.94 1.14 1.34 1.58 1.84
0.65 0.73 0.82 0.90 0.87 0.84 0.86 0.89 0.87 0.83 0.83 0.76 0.69 0.70 0.71 0.67 0.53 0.33 0.28 0.40 0.60 0.73 0.75 0.77 0.69 0.50 0.41 0.36 0.35 0.44 0.49 0.48 0.55 0.62 0.69 0.71 0.72 0.77 0.83 0.94 1.16 1.29 1.36
0.71 0.79 0.90 0.97 0.82 0.75 0.92 0.95 0.95 0.96 0.96 0.93 0.87 0.79 0.76 0.73 0.54 0.39 0.31 0.34 0.48 0.69 0.81 0.80 0.67 0.48 0.40 0.37 0.33 0.36 0.35 0.34 0.43 0.55 0.64 0.70 0.72 0.73 0.80 0.89 1.03 1.19 1.31
0.80 0.90 0.94 0.96 1.01 1.01 0.99 1.00 1.02 1.01 1.03 1.01 0.99 0.93 0.87 0.86 0.77 0.48 0.38 0.36 0.42 0.57 0.69 0.73 0.65 0.46 0.40 0.42 0.41 0.35 0.31 0.31 0.40 0.47 0.54 0.62 0.65 0.69 0.80 0.94 1.11 1.19 1.22
0.90 0.95 0.99 1.02 1.04 1.09 1.15 1.12 1.09 1.05 1.07 1.09 1.02 1.00 0.99 0.99 0.93 0.74 0.61 0.52 0.50 0.52 0.58 0.61 0.64 0.57 0.46 0.49 0.51 0.43 0.37 0.41 0.45 0.45 0.50 0.57 0.63 0.71 0.82 0.89 1.00 1.11 1.20
1.00 1.03 1.06 1.08 1.12 1.15 1.17 1.12 1.04 1.01 0.92 0.95 0.97 0.96 0.98 0.99 0.89 0.78 0.75 0.72 0.68 0.64 0.63 0.72 0.73 0.78 0.70 0.66 0.68 0.63 0.57 0.60 0.58 0.56 0.56 0.59 0.65 0.70 0.76 0.85 0.94 0.99 1.06
1.12 1.06 1.05 1.04 1.08 1.12 1.12 0.98 0.76 0.69 0.62 0.60 0.64 0.68 0.69 0.66 0.60 0.57 0.60 0.61 0.61 0.63 0.63 0.76 0.86 0.89 0.87 0.86 0.85 0.82 0.80 0.75 0.72 0.73 0.69 0.66 0.68 0.72 0.74 0.79 0.87 0.90 0.90
1.10 1.06 0.99 0.94 0.94 0.94 0.99 1.02 0.95 0.80 0.71 0.62 0.51 0.47 0.51 0.46 0.42 0.43 0.50 0.56 0.58 0.62 0.66 0.77 0.89 0.94 0.95 0.95 0.90 0.87 0.89 0.82 0.82 0.83 0.80 0.78 0.78 0.80 0.78 0.79 0.85 0.90 0.88
1.01 0.93 0.89 0.90 0.88 0.85 0.86 0.91 0.92 0.96 0.96 0.83 0.63 0.52 0.46 0.39 0.34 0.36 0.45 0.56 0.63 0.63 0.73 0.85 0.96 0.94 0.98 1.01 0.95 0.91 0.92 0.88 0.85 0.83 0.81 0.79 0.79 0.84 0.85 0.81 0.80 0.83 0.85
1.04 0.92 0.85 0.82 0.83 0.83 0.82 0.82 0.85 0.91 0.96 0.95 0.81 0.69 0.56 0.41 0.36 0.38 0.43 0.52 0.64 0.73 0.82 0.92 0.94 0.93 0.96 0.94 0.89 0.87 0.91 0.89 0.85 0.83 0.80 0.79 0.78 0.83 0.85 0.84 0.80 0.84 0.83
1.05 0.91 0.84 0.79 0.76 0.81 0.85 0.82 0.80 0.88 0.93 0.92 0.87 0.72 0.54 0.46 0.47 0.49 0.49 0.55 0.65 0.73 0.78 0.83 0.82 0.80 0.82 0.83 0.84 0.85 0.91 0.90 0.88 0.86 0.79 0.76 0.76 0.81 0.83 0.83 0.81 0.79 0.80
1.01 0.91 0.82 0.74 0.71 0.74 0.81 0.81 0.77 0.82 0.85 0.82 0.74 0.63 0.49 0.44 0.50 0.55 0.59 0.60 0.63 0.67 0.70 0.75 0.77 0.74 0.71 0.74 0.77 0.79 0.84 0.86 0.81 0.76 0.71 0.70 0.70 0.76 0.77 0.77 0.78 0.75 0.76
1.01 0.98 0.88 0.79 0.75 0.74 0.75 0.78 0.79 0.80 0.79 0.77 0.68 0.55 0.49 0.48 0.51 0.53 0.54 0.53 0.54 0.59 0.63 0.71 0.74 0.72 0.69 0.72 0.73 0.72 0.71 0.69 0.68 0.66 0.65 0.64 0.67 0.73 0.74 0.74 0.76 0.76 0.75
0.96 0.95 0.91 0.82 0.76 0.76 0.76 0.78 0.81 0.77 0.72 0.72 0.66 0.55 0.51 0.56 0.52 0.51 0.50 0.48 0.50 0.54 0.56 0.61 0.65 0.64 0.63 0.63 0.64 0.62 0.59 0.58 0.58 0.53 0.54 0.57 0.59 0.63 0.65 0.66 0.72 0.75 0.72
0.90 0.91 0.87 0.79 0.75 0.74 0.73 0.77 0.75 0.65 0.57 0.57 0.58 0.52 0.52 0.55 0.51 0.47 0.41 0.40 0.44 0.43 0.43 0.45 0.44 0.43 0.46 0.50 0.52 0.52 0.49 0.47 0.48 0.50 0.50 0.53 0.54 0.55 0.57 0.60 0.66 0.70 0.69
0.87 0.87 0.85 0.80 0.75 0.68 0.65 0.66 0.63 0.57 0.50 0.47 0.48 0.47 0.49 0.49 0.46 0.40 0.34 0.36 0.40 0.40 0.36 0.35 0.36 0.37 0.37 0.38 0.39 0.39 0.41 0.44 0.48 0.46 0.45 0.48 0.50 0.55 0.54 0.57 0.64 0.69 0.68
0.81 0.78 0.74 0.71 0.64 0.58 0.56 0.57 0.54 0.47 0.42 0.39 0.39 0.41 0.41 0.42 0.43 0.39 0.34 0.35 0.37 0.37 0.33 0.30 0.32 0.33 0.33 0.31 0.29 0.30 0.31 0.34 0.39 0.40 0.38 0.39 0.48 0.55 0.55 0.52 0.52 0.59 0.61